• In Portugal
  • List of Countries
  • For 7 days
  • Water Temperature
  • Satellite Maps
  • Weather Map
  • Weather Widgets
  • user-avatar
    Login

    Hourly Weather Bobo-Dioulasso

    Today, 23 November, Thursday

    Time Temperature Precipitation Wind Pressure Humidity
    00:00 +28°C° 0 mm 1 mps 722 mmHg 21%
    01:00 +28°C° 0 mm 1 mps 721 mmHg 21%
    02:00 +27°C° 0 mm 1 mps 721 mmHg 20%
    03:00 +27°C° 0 mm 1 mps 721 mmHg 20%
    04:00 +26°C° 0 mm 1 mps 721 mmHg 21%
    05:00 +26°C° 0 mm 1 mps 721 mmHg 21%
    06:00 +23°C° 0 mm 0 mps 721 mmHg 23%
    07:00 +27°C° 0 mm 1 mps 722 mmHg 21%
    08:00 +30°C° 0 mm 1 mps 722 mmHg 19%
    09:00 +32°C° 0 mm 1 mps 723 mmHg 16%
    10:00 +34°C° 0 mm 1 mps 723 mmHg 14%
    11:00 +37°C° 0 mm 2 mps 723 mmHg 12%
    12:00 +39°C° 0 mm 2 mps 723 mmHg 10%
    13:00 +40°C° 0 mm 2 mps 722 mmHg 10%
    14:00 +40°C° 0 mm 2 mps 721 mmHg 9%
    15:00 +40°C° 0 mm 2 mps 721 mmHg 9%
    16:00 +38°C° 0 mm 2 mps 721 mmHg 10%
    17:00 +35°C° 0 mm 1 mps 721 mmHg 11%
    18:00 +33°C° 0 mm 1 mps 721 mmHg 13%
    19:00 +32°C° 0 mm 1 mps 721 mmHg 14%
    20:00 +31°C° 0 mm 1 mps 722 mmHg 15%
    21:00 +30°C° 0 mm 1 mps 722 mmHg 16%
    22:00 +29°C° 0 mm 1 mps 722 mmHg 16%
    23:00 +29°C° 0 mm 1 mps 722 mmHg 17%

    Tomorrow, 24 November, Friday

    Time Temperature Precipitation Wind Pressure Humidity
    00:00 +28°C° 0 mm 1 mps 722 mmHg 17%
    01:00 +28°C° 0 mm 1 mps 722 mmHg 18%
    02:00 +27°C° 0 mm 1 mps 722 mmHg 18%
    03:00 +26°C° 0 mm 1 mps 721 mmHg 19%
    04:00 +26°C° 0 mm 1 mps 722 mmHg 20%
    05:00 +25°C° 0 mm 1 mps 722 mmHg 21%
    06:00 +25°C° 0 mm 1 mps 722 mmHg 22%
    07:00 +27°C° 0 mm 1 mps 722 mmHg 24%
    08:00 +29°C° 0 mm 1 mps 723 mmHg 27%
    09:00 +31°C° 0 mm 2 mps 724 mmHg 30%
    10:00 +34°C° 0 mm 2 mps 723 mmHg 25%
    11:00 +37°C° 0 mm 2 mps 723 mmHg 21%
    12:00 +39°C° 0 mm 2 mps 723 mmHg 16%
    13:00 +39°C° 0 mm 2 mps 722 mmHg 15%
    14:00 +39°C° 0 mm 2 mps 722 mmHg 13%
    15:00 +40°C° 0 mm 2 mps 721 mmHg 12%
    16:00 +38°C° 0 mm 2 mps 721 mmHg 13%
    17:00 +35°C° 0 mm 1 mps 721 mmHg 14%
    18:00 +33°C° 0 mm 1 mps 721 mmHg 14%
    19:00 +32°C° 0 mm 1 mps 721 mmHg 15%
    20:00 +31°C° 0 mm 1 mps 722 mmHg 15%
    21:00 +30°C° 0 mm 1 mps 722 mmHg 16%
    22:00 +30°C° 0 mm 1 mps 722 mmHg 16%
    23:00 +27°C° 0 mm 0 mps 722 mmHg 17%

    Day after tomorrow, 25 November, Saturday

    Time Temperature Precipitation Wind Pressure Humidity
    00:00 +27°C° 0 mm 0 mps 722 mmHg 17%
    01:00 +26°C° 0 mm 0 mps 722 mmHg 18%
    02:00 +25°C° 0 mm 0 mps 722 mmHg 19%
    03:00 +24°C° 0 mm 0 mps 721 mmHg 20%
    04:00 +26°C° 0 mm 1 mps 721 mmHg 23%
    05:00 +25°C° 0 mm 1 mps 722 mmHg 25%
    06:00 +25°C° 0 mm 1 mps 722 mmHg 28%
    07:00 +27°C° 0 mm 1 mps 723 mmHg 30%
    08:00 +29°C° 0 mm 1 mps 723 mmHg 33%
    09:00 +31°C° 0 mm 2 mps 724 mmHg 36%
    10:00 +34°C° 0 mm 2 mps 724 mmHg 30%
    11:00 +37°C° 0 mm 2 mps 724 mmHg 24%
    12:00 +39°C° 0 mm 2 mps 724 mmHg 18%
    13:00 +39°C° 0 mm 2 mps 723 mmHg 16%
    14:00 +39°C° 0 mm 2 mps 722 mmHg 14%
    15:00 +40°C° 0 mm 2 mps 721 mmHg 12%
    16:00 +38°C° 0 mm 2 mps 721 mmHg 13%
    17:00 +36°C° 0 mm 2 mps 721 mmHg 13%
    18:00 +33°C° 0 mm 1 mps 721 mmHg 14%
    19:00 +32°C° 0 mm 1 mps 722 mmHg 14%
    20:00 +31°C° 0 mm 1 mps 722 mmHg 14%
    21:00 +30°C° 0 mm 1 mps 723 mmHg 14%
    22:00 +29°C° 0 mm 1 mps 723 mmHg 14%
    23:00 +29°C° 0 mm 1 mps 723 mmHg 15%

    26 November, Sunday

    Time Temperature Precipitation Wind Pressure Humidity
    00:00 +28°C° 0 mm 1 mps 723 mmHg 15%
    01:00 +27°C° 0 mm 1 mps 723 mmHg 16%
    02:00 +27°C° 0 mm 1 mps 722 mmHg 16%
    03:00 +26°C° 0 mm 1 mps 722 mmHg 17%
    04:00 +25°C° 0 mm 1 mps 722 mmHg 19%
    05:00 +23°C° 0 mm 0 mps 722 mmHg 21%
    06:00 +22°C° 0 mm 0 mps 723 mmHg 23%
    07:00 +27°C° 0 mm 1 mps 723 mmHg 25%
    08:00 +29°C° 0 mm 1 mps 724 mmHg 26%
    09:00 +31°C° 0 mm 1 mps 725 mmHg 28%
    10:00 +34°C° 0 mm 2 mps 725 mmHg 23%
    11:00 +36°C° 0 mm 2 mps 724 mmHg 17%
    12:00 +38°C° 0 mm 3 mps 724 mmHg 12%
    13:00 +39°C° 0 mm 3 mps 723 mmHg 11%
    14:00 +39°C° 0 mm 3 mps 723 mmHg 9%
    15:00 +40°C° 0 mm 3 mps 722 mmHg 8%
    16:00 +38°C° 0 mm 2 mps 722 mmHg 9%
    17:00 +36°C° 0 mm 2 mps 722 mmHg 10%
    18:00 +32°C° 0 mm 1 mps 722 mmHg 11%
    19:00 +31°C° 0 mm 1 mps 722 mmHg 11%
    20:00 +30°C° 0 mm 1 mps 723 mmHg 12%
    21:00 +29°C° 0 mm 1 mps 723 mmHg 13%
    22:00 +29°C° 0 mm 1 mps 723 mmHg 13%
    23:00 +28°C° 0 mm 1 mps 723 mmHg 14%

    27 November, Monday

    Time Temperature Precipitation Wind Pressure Humidity
    00:00 +27°C° 0 mm 1 mps 723 mmHg 14%
    01:00 +27°C° 0 mm 1 mps 723 mmHg 15%
    02:00 +26°C° 0 mm 1 mps 722 mmHg 15%
    03:00 +25°C° 0 mm 2 mps 722 mmHg 16%
    04:00 +25°C° 0 mm 2 mps 722 mmHg 16%
    05:00 +25°C° 0 mm 2 mps 722 mmHg 17%
    06:00 +24°C° 0 mm 2 mps 723 mmHg 18%
    07:00 +27°C° 0 mm 3 mps 724 mmHg 16%
    08:00 +29°C° 0 mm 3 mps 724 mmHg 14%
    09:00 +32°C° 0 mm 4 mps 725 mmHg 13%
    10:00 +34°C° 0 mm 4 mps 725 mmHg 11%
    11:00 +36°C° 0 mm 5 mps 724 mmHg 10%
    12:00 +39°C° 0 mm 5 mps 724 mmHg 8%
    13:00 +40°C° 0 mm 4 mps 723 mmHg 8%
    14:00 +40°C° 0 mm 4 mps 722 mmHg 8%
    15:00 +39°C° 0 mm 3 mps 722 mmHg 8%
    16:00 +37°C° 0 mm 3 mps 722 mmHg 9%
    17:00 +35°C° 0 mm 2 mps 722 mmHg 10%
    18:00 +32°C° 0 mm 1 mps 722 mmHg 11%
    19:00 +31°C° 0 mm 1 mps 722 mmHg 12%
    20:00 +30°C° 0 mm 1 mps 723 mmHg 13%
    21:00 +29°C° 0 mm 1 mps 723 mmHg 14%
    22:00 +28°C° 0 mm 1 mps 723 mmHg 14%
    23:00 +28°C° 0 mm 1 mps 723 mmHg 15%

    28 November, Tuesday

    Time Temperature Precipitation Wind Pressure Humidity
    00:00 +27°C° 0 mm 1 mps 723 mmHg 16%
    01:00 +26°C° 0 mm 1 mps 723 mmHg 16%
    02:00 +26°C° 0 mm 1 mps 722 mmHg 17%
    03:00 +25°C° 0 mm 1 mps 722 mmHg 18%
    04:00 +24°C° 0 mm 1 mps 722 mmHg 19%
    05:00 +24°C° 0 mm 1 mps 723 mmHg 20%
    06:00 +21°C° 0 mm 0 mps 723 mmHg 21%
    07:00 +26°C° 0 mm 1 mps 724 mmHg 19%
    08:00 +28°C° 0 mm 1 mps 724 mmHg 17%
    09:00 +31°C° 0 mm 2 mps 725 mmHg 14%
    10:00 +33°C° 0 mm 3 mps 724 mmHg 12%
    11:00 +35°C° 0 mm 3 mps 724 mmHg 10%
    12:00 +37°C° 0 mm 4 mps 724 mmHg 8%
    13:00 +38°C° 0 mm 4 mps 723 mmHg 8%
    14:00 +38°C° 0 mm 3 mps 722 mmHg 8%
    15:00 +38°C° 0 mm 3 mps 721 mmHg 8%
    16:00 +36°C° 0 mm 2 mps 722 mmHg 9%
    17:00 +34°C° 0 mm 2 mps 722 mmHg 10%
    18:00 +31°C° 0 mm 1 mps 722 mmHg 11%
    19:00 +30°C° 0 mm 1 mps 722 mmHg 12%
    20:00 +29°C° 0 mm 1 mps 722 mmHg 13%
    21:00 +26°C° 0 mm 0 mps 723 mmHg 14%
    22:00 +25°C° 0 mm 0 mps 723 mmHg 14%
    23:00 +27°C° 0 mm 1 mps 722 mmHg 14%
    Show more